When you browse on this site, cookies collect data to enhance your experience and personalize the content and advertising you see.
Visit our Privacy Policy to learn more. By continuing to use the site, you agree to this use of cookies and data.
  • In Lithuania
  • List of Countries
  • For 7 days
  • Water Temperature
  • Weather Map
  • Weather Widgets
  • user-avatar
    Login

    Hourly Weather Canillo

    Today, 28 February, Friday

    Time Temperature Precipitation Wind Pressure Humidity
    00:00 +1°C° 0 mm 3 mps 617 mmHg 95%
    01:00 +1°C° 0.3 mm 3 mps 617 mmHg 95%
    02:00 +1°C° 0.3 mm 2 mps 617 mmHg 96%
    03:00 +2°C° 0.3 mm 1 mps 617 mmHg 96%
    04:00 +2°C° 0.3 mm 1 mps 617 mmHg 96%
    05:00 +2°C° 0.3 mm 1 mps 618 mmHg 96%
    06:00 +1°C° 0 mm 2 mps 618 mmHg 96%
    07:00 +3°C° 0 mm 1 mps 619 mmHg 92%
    08:00 +4°C° 0 mm 1 mps 619 mmHg 88%
    09:00 +5°C° 0 mm 1 mps 620 mmHg 84%
    10:00 +7°C° 0 mm 1 mps 620 mmHg 78%
    11:00 +8°C° 0 mm 1 mps 620 mmHg 72%
    12:00 +9°C° 0 mm 1 mps 621 mmHg 67%
    13:00 +9°C° 0 mm 1 mps 621 mmHg 68%
    14:00 +9°C° 0 mm 1 mps 620 mmHg 69%
    15:00 +9°C° 0 mm 1 mps 620 mmHg 70%
    16:00 +7°C° 0 mm 1 mps 619 mmHg 77%
    17:00 +5°C° 0 mm 2 mps 618 mmHg 84%
    18:00 +3°C° 0 mm 2 mps 617 mmHg 90%
    19:00 +3°C° 0 mm 2 mps 617 mmHg 91%
    20:00 +3°C° 0 mm 2 mps 616 mmHg 92%
    21:00 +3°C° 0 mm 2 mps 616 mmHg 92%
    22:00 +2°C° 0 mm 2 mps 616 mmHg 91%
    23:00 +2°C° 0 mm 2 mps 615 mmHg 90%

    Tomorrow, 29 February, Saturday

    Time Temperature Precipitation Wind Pressure Humidity
    00:00 +1°C° 0 mm 3 mps 614 mmHg 88%
    01:00 0°C° 0 mm 3 mps 614 mmHg 87%
    02:00 0°C° 0 mm 3 mps 613 mmHg 86%
    03:00 0°C° 0 mm 3 mps 612 mmHg 86%
    04:00 0°C° 0 mm 3 mps 611 mmHg 84%
    05:00 0°C° 0 mm 3 mps 611 mmHg 83%
    06:00 0°C° 0 mm 3 mps 611 mmHg 82%
    07:00 +1°C° 0 mm 3 mps 611 mmHg 78%
    08:00 +2°C° 0 mm 3 mps 611 mmHg 74%
    09:00 +3°C° 0 mm 3 mps 611 mmHg 70%
    10:00 +5°C° 0 mm 3 mps 612 mmHg 65%
    11:00 +7°C° 0 mm 3 mps 613 mmHg 60%
    12:00 +8°C° 0 mm 3 mps 613 mmHg 56%
    13:00 +8°C° 0 mm 2 mps 613 mmHg 62%
    14:00 +7°C° 0 mm 2 mps 612 mmHg 67%
    15:00 +6°C° 0 mm 2 mps 611 mmHg 73%
    16:00 +5°C° 0.2 mm 2 mps 611 mmHg 80%
    17:00 +4°C° 0.2 mm 2 mps 611 mmHg 86%
    18:00 +3°C° 0.2 mm 1 mps 611 mmHg 93%
    19:00 +3°C° 0.2 mm 1 mps 611 mmHg 94%
    20:00 +3°C° 0.2 mm 1 mps 611 mmHg 95%
    21:00 +3°C° 0.2 mm 1 mps 611 mmHg 96%
    22:00 +2°C° 0.3 mm 1 mps 611 mmHg 96%
    23:00 +2°C° 0.3 mm 1 mps 611 mmHg 96%

    Day after tomorrow, 1 March, Sunday

    Time Temperature Precipitation Wind Pressure Humidity
    00:00 +1°C° 0.3 mm 1 mps 611 mmHg 96%
    01:00 +1°C° 0.1 mm 1 mps 611 mmHg 96%
    02:00 +1°C° 0.1 mm 1 mps 611 mmHg 96%
    03:00 -1°C° 0.1 mm 0 mps 610 mmHg 96%
    04:00 -1°C° 0.2 mm 0 mps 610 mmHg 96%
    05:00 -1°C° 0.2 mm 0 mps 610 mmHg 95%
    06:00 -1°C° 0.2 mm 0 mps 610 mmHg 95%
    07:00 0°C° 0.1 mm 1 mps 610 mmHg 92%
    08:00 +1°C° 0.1 mm 1 mps 610 mmHg 89%
    09:00 +1°C° 0.1 mm 2 mps 611 mmHg 86%
    10:00 +1°C° 0 mm 2 mps 610 mmHg 82%
    11:00 +2°C° 0 mm 2 mps 610 mmHg 78%
    12:00 +2°C° 0 mm 2 mps 610 mmHg 74%
    13:00 +2°C° 0.1 mm 3 mps 610 mmHg 69%
    14:00 +1°C° 0.1 mm 4 mps 609 mmHg 64%
    15:00 +3°C° 0.1 mm 4 mps 609 mmHg 59%
    16:00 +1°C° 0.2 mm 3 mps 609 mmHg 71%
    17:00 +1°C° 0.2 mm 2 mps 608 mmHg 82%
    18:00 +1°C° 0.2 mm 1 mps 608 mmHg 94%
    19:00 0°C° 0.2 mm 1 mps 608 mmHg 94%
    20:00 0°C° 0.2 mm 1 mps 609 mmHg 95%
    21:00 -1°C° 0.2 mm 1 mps 609 mmHg 95%
    22:00 0°C° 0.1 mm 1 mps 609 mmHg 94%
    23:00 -2°C° 0.1 mm 2 mps 608 mmHg 93%

    2 March, Monday

    Time Temperature Precipitation Wind Pressure Humidity
    00:00 -2°C° 0.1 mm 2 mps 608 mmHg 92%
    01:00 -2°C° 0.1 mm 2 mps 608 mmHg 92%
    02:00 -2°C° 0.1 mm 2 mps 607 mmHg 92%
    03:00 -2°C° 0.1 mm 2 mps 607 mmHg 92%
    04:00 -2°C° 0.1 mm 2 mps 606 mmHg 92%
    05:00 -2°C° 0.1 mm 2 mps 605 mmHg 92%
    06:00 0°C° 0.1 mm 1 mps 605 mmHg 92%
    07:00 -2°C° 0.1 mm 2 mps 604 mmHg 90%
    08:00 -1°C° 0.1 mm 2 mps 604 mmHg 88%
    09:00 -1°C° 0.1 mm 2 mps 604 mmHg 86%
    10:00 +1°C° 0 mm 2 mps 604 mmHg 82%
    11:00 +2°C° 0 mm 2 mps 604 mmHg 79%
    12:00 +3°C° 0 mm 2 mps 604 mmHg 75%
    13:00 +2°C° 2 mm 2 mps 603 mmHg 82%
    14:00 +1°C° 2 mm 2 mps 602 mmHg 90%
    15:00 -1°C° 2 mm 2 mps 602 mmHg 97%
    16:00 -2°C° 1 mm 3 mps 602 mmHg 96%
    17:00 -4°C° 1 mm 3 mps 602 mmHg 95%
    18:00 -4°C° 1 mm 3 mps 602 mmHg 94%
    19:00 -5°C° 0.6 mm 4 mps 603 mmHg 93%
    20:00 -7°C° 0.6 mm 4 mps 604 mmHg 93%
    21:00 -7°C° 0.6 mm 5 mps 605 mmHg 92%
    22:00 -8°C° 0.4 mm 5 mps 605 mmHg 92%
    23:00 -9°C° 0.4 mm 4 mps 605 mmHg 92%

    3 March, Tuesday

    Time Temperature Precipitation Wind Pressure Humidity
    00:00 -9°C° 0.4 mm 4 mps 606 mmHg 92%
    01:00 -9°C° 1.2 mm 4 mps 606 mmHg 93%
    02:00 -9°C° 1.2 mm 4 mps 607 mmHg 93%
    03:00 -9°C° 1.2 mm 4 mps 607 mmHg 94%
    04:00 -9°C° 1 mm 4 mps 608 mmHg 94%
    05:00 -9°C° 1 mm 4 mps 608 mmHg 94%
    06:00 -9°C° 1 mm 4 mps 609 mmHg 94%
    07:00 -8°C° 1.1 mm 4 mps 610 mmHg 90%
    08:00 -8°C° 1.1 mm 5 mps 610 mmHg 87%
    09:00 -7°C° 1.1 mm 5 mps 611 mmHg 84%
    10:00 -6°C° 0.4 mm 5 mps 612 mmHg 81%
    11:00 -4°C° 0.4 mm 4 mps 612 mmHg 78%
    12:00 -4°C° 0.4 mm 4 mps 613 mmHg 75%
    13:00 -3°C° 0.1 mm 4 mps 613 mmHg 76%
    14:00 -2°C° 0.1 mm 3 mps 612 mmHg 76%
    15:00 -2°C° 0.1 mm 3 mps 612 mmHg 77%
    16:00 -4°C° 0 mm 3 mps 612 mmHg 80%
    17:00 -5°C° 0 mm 2 mps 611 mmHg 83%
    18:00 -6°C° 0 mm 2 mps 611 mmHg 86%
    19:00 -5°C° 0.1 mm 2 mps 611 mmHg 84%
    20:00 -5°C° 0.1 mm 2 mps 612 mmHg 83%
    21:00 -4°C° 0.1 mm 2 mps 612 mmHg 81%
    22:00 -3°C° 0.7 mm 2 mps 612 mmHg 85%
    23:00 -2°C° 0.7 mm 2 mps 612 mmHg 90%

    4 March, Wednesday

    Time Temperature Precipitation Wind Pressure Humidity
    00:00 -1°C° 0.7 mm 2 mps 612 mmHg 94%
    01:00 -1°C° 2 mm 2 mps 612 mmHg 96%
    02:00 -1°C° 2 mm 2 mps 612 mmHg 97%
    03:00 +1°C° 2 mm 2 mps 611 mmHg 98%
    04:00 +1°C° 2.2 mm 2 mps 611 mmHg 98%
    05:00 +1°C° 2.2 mm 2 mps 611 mmHg 98%
    06:00 +1°C° 2.2 mm 2 mps 611 mmHg 98%
    07:00 +2°C° 1.2 mm 2 mps 612 mmHg 98%
    08:00 +2°C° 1.2 mm 2 mps 612 mmHg 97%
    09:00 +2°C° 1.2 mm 2 mps 613 mmHg 97%
    10:00 +3°C° 0.1 mm 2 mps 613 mmHg 93%
    11:00 +2°C° 0.1 mm 3 mps 613 mmHg 89%
    12:00 +3°C° 0.1 mm 3 mps 614 mmHg 85%
    13:00 +3°C° 0 mm 3 mps 614 mmHg 82%
    14:00 +3°C° 0 mm 3 mps 613 mmHg 80%
    15:00 +3°C° 0 mm 3 mps 613 mmHg 77%
    16:00 +1°C° 0 mm 3 mps 613 mmHg 79%
    17:00 -1°C° 0 mm 3 mps 612 mmHg 82%
    18:00 -2°C° 0 mm 2 mps 612 mmHg 84%
    19:00 -3°C° 0 mm 2 mps 612 mmHg 78%
    20:00 -3°C° 0 mm 2 mps 612 mmHg 73%
    21:00 -5°C° 0 mm 3 mps 613 mmHg 67%
    22:00 -3°C° 0 mm 2 mps 612 mmHg 66%
    23:00 -3°C° 0 mm 2 mps 612 mmHg 66%
    Show more